Regional Weather Roundup
Issued by NWS

Home | Current Version | Previous Version | Graphics & Text | Print | Product List | Glossary On
Versions: 1 2 3 4 5 6 7 8 9 10 11 12 13 14 15 16 17 18 19 20 21 22 23 24 25 26 27 28 29 30 31 32 33 34 35 36 37 38 39 40 41 42 43 44 45 46 47 48 49 50
110
ASUS43 KBIS 150802
RWRND

NORTH DAKOTA REGIONAL WEATHER ROUNDUP
NATIONAL WEATHER SERVICE BISMARCK ND
200 AM CST FRI DEC 15 2017

NOTE: "FAIR" INDICATES FEW OR NO CLOUDS BELOW 12,000 FEET WITH NO
SIGNIFICANT WEATHER AND/OR OBSTRUCTIONS TO VISIBILITY.


NDZ001>003-009>011-017-150900-
NORTHWEST NORTH DAKOTA

CITY           SKY/WX    TMP DP  RH WIND       PRES   REMARKS
WILLISTON      CLOUDY    27  21  78 SW7       29.89F WCI  19
MINOT          CLOUDY    30  22  72 SW7       29.88F
MINOT AFB      CLOUDY    28  22  79 W6        29.88F
$$

NDZ018>021-031>035-040>046-150900-
SOUTHWEST NORTH DAKOTA

CITY           SKY/WX    TMP DP  RH WIND       PRES   REMARKS
BISMARCK       CLOUDY    32  24  72 NW3       29.95F
DICKINSON      CLOUDY    26  21  81 W7        29.90F WCI  18
GARRISON         N/A     28  22  78 SW3       29.90F
HETTINGER ARPT CLOUDY    22  18  85 N5        29.96F WCI  16
$$

NDZ004>008-012>016-024-026-027-054-150900-
NORTHEAST NORTH DAKOTA

CITY           SKY/WX    TMP DP  RH WIND       PRES   REMARKS
GRAND FORKS    CLOUDY    19  15  84 N7        29.96F WCI  10
GRND FRKS AFB  CLOUDY    19  14  81 NE6       29.95F WCI  10
DEVILS LAKE    CLOUDY    22  19  89 SE5       29.92F WCI  16
$$

NDZ022-023-025-028>030-036>039-047>053-150900-
SOUTHEAST NORTH DAKOTA

CITY           SKY/WX    TMP DP  RH WIND       PRES   REMARKS
FARGO          CLOUDY    20  17  88 N3        29.96F
JAMESTOWN      CLOUDY    26  24  92 E9        29.91F WCI  17
$$





USA.gov is the U.S. government's official web portal to all federal, state and local government web resources and services.